W5MAI Weather Reports


Display with metric or nautical units.
time (UTC)temp
F
wind
direction
speed
MPH
gust
MPH
rain 1hr
in
rain 24hr
in
rain mn
in
humidity
%
barometer
mb
20260905044336 81 128 3.0 8.0 0.00 0.00 0.00 74 1016.0
20260905043414 81 141 2.0 5.0 0.00 0.00 0.00 74 1016.1
20260905042329 81 136 1.0 4.0 0.00 0.00 0.00 73 1016.2
20260905041359 82 143 1.0 5.0 0.00 0.00 0.00 73 1016.0
20260905040323 82 141 1.0 4.0 0.00 0.00 0.00 72 1016.0
20260905035341 82 107 0.0 2.0 0.00 0.00 0.00 71 1016.0
20260905034355 82 107 1.0 4.0 0.00 0.00 0.00 71 1016.1
20260905033423 82 130 2.0 3.0 0.00 0.00 0.00 71 1015.9
20260905032350 82 117 1.0 3.0 0.00 0.00 0.00 70 1015.8
20260905031411 82 117 1.0 3.0 0.00 0.00 0.00 70 1015.6
20260905030419 82 117 1.0 3.0 0.00 0.00 0.00 70 1015.6
20260905025344 83 117 0.0 3.0 0.00 0.00 0.00 69 1015.4
20260905024356 83 117 1.0 3.0 0.00 0.00 0.00 69 1015.4
20260905023326 83 117 0.0 6.0 0.00 0.00 0.00 68 1015.1
20260905022351 83 107 1.0 4.0 0.00 0.00 0.00 68 1015.0
20260905021325 84 109 0.0 5.0 0.00 0.00 0.00 67 1014.9
20260905015354 84 103 1.0 4.0 0.00 0.00 0.00 66 1014.9
20260905014414 84 110 1.0 8.0 0.00 0.00 0.00 66 1014.8
20260905013339 85 88 2.0 4.0 0.00 0.00 0.00 65 1014.8
20260905012359 85 63 0.0 5.0 0.00 0.00 0.00 64 1014.7
20260905011322 85 91 3.0 8.0 0.00 0.00 0.00 64 1014.6
20260905010358 86 126 0.0 0.0 0.00 0.00 0.00 63 1014.4
20260905005422 87 127 0.0 1.0 0.00 0.00 0.00 61 1014.4
20260905004345 87 127 0.0 3.0 0.00 0.00 0.00 59 1014.3
20260905003418 88 127 1.0 4.0 0.00 0.00 0.00 58 1014.4
20260905001343 89 137 2.0 8.0 0.00 0.00 0.00 57 1014.2
20260905000417 90 109 2.0 10.0 0.00 0.00 0.00 57 1013.8
20260904234346 90 116 4.0 9.0 0.00 0.00 0.00 55 1013.7
20260904233419 91 121 4.0 9.0 0.00 0.00 0.00 54 1013.6
20260904232337 91 107 4.0 10.0 0.00 0.00 0.00 52 1013.7
20260904231336 91 147 4.0 10.0 0.00 0.00 0.00 51 1013.7
20260904230355 90 157 3.0 9.0 0.00 0.00 0.00 53 1013.9
20260904225421 90 128 2.0 9.0 0.00 0.00 0.00 56 1013.7
20260904222347 91 138 5.0 9.0 0.00 0.00 0.00 58 1014.1
20260904221348 90 105 2.0 7.0 0.00 0.00 0.00 58 1014.1
20260904220347 90 250 4.0 11.0 0.00 0.00 0.00 58 1014.2
20260904215346 90 87 4.0 10.0 0.00 0.00 0.00 59 1014.1
20260904214416 90 146 3.0 9.0 0.00 0.00 0.00 60 1014.5
20260904211338 88 165 4.0 10.0 0.00 0.00 0.00 61 1015.0
20260904210352 89 150 4.0 10.0 0.00 0.00 0.00 61 1015.2
20260904205422 89 121 5.0 9.0 0.00 0.00 0.00 62 1015.1
20260904204336 88 160 3.0 8.0 0.00 0.00 0.00 63 1015.2
20260904203405 89 113 3.0 7.0 0.00 0.00 0.00 64 1015.3
20260904202422 88 140 2.0 6.0 0.00 0.00 0.00 63 1015.2
20260904195337 88 179 3.0 7.0 0.00 0.00 0.00 63 1015.6
20260904194405 88 223 0.0 9.0 0.00 0.00 0.00 64 1015.7
20260904193407 89 180 4.0 7.0 0.00 0.00 0.00 64 1015.8
20260904192418 88 192 2.0 7.0 0.00 0.00 0.00 64 1015.8
20260904191333 88 194 4.0 8.0 0.00 0.00 0.00 66 1016.0
20260904190345 87 87 3.0 10.0 0.00 0.00 0.00 68 1016.1
20260904185412 87 142 4.0 6.0 0.00 0.00 0.00 68 1016.2
20260904184327 87 161 2.0 6.0 0.00 0.00 0.00 68 1016.2
20260904182351 87 80 2.0 7.0 0.00 0.00 0.00 68 1016.3
20260904181420 87 254 3.0 7.0 0.00 0.00 0.00 68 1016.5
20260904180331 86 178 3.0 8.0 0.00 0.00 0.00 69 1016.5
20260904175400 86 98 4.0 8.0 0.00 0.00 0.00 69 1016.6
20260904174421 86 200 2.0 6.0 0.00 0.00 0.00 70 1016.7
20260904173330 86 199 1.0 8.0 0.00 0.00 0.00 73 1016.7
20260904172334 85 219 2.0 6.0 0.00 0.00 0.00 74 1016.9
20260904171335 85 222 3.0 8.0 0.00 0.00 0.00 74 1016.9
20260904170350 84 167 5.0 8.0 0.00 0.00 0.00 75 1017.0
20260904165355 84 186 4.0 7.0 0.00 0.00 0.00 76 1017.0
20260904164354 84 163 2.0 7.0 0.00 0.00 0.00 76 1017.1
20260904163412 83 175 3.0 6.0 0.00 0.00 0.00 77 1017.1
20260904162411 83 150 3.0 7.0 0.00 0.00 0.00 77 1017.2
20260904161323 83 136 2.0 6.0 0.00 0.00 0.00 78 1017.3
20260904160351 82 173 2.0 5.0 0.00 0.00 0.00 80 1017.2
20260904155421 82 203 1.0 4.0 0.00 0.00 0.00 81 1017.3
20260904154338 82 189 1.0 4.0 0.00 0.00 0.00 81 1017.3
20260904153353 81 244 2.0 4.0 0.00 0.00 0.00 82 1017.2
20260904152415 81 174 3.0 5.0 0.00 0.00 0.00 82 1017.1
20260904143324 80 148 3.0 7.0 0.00 0.00 0.00 86 1016.9
20260904142354 80 139 2.0 8.0 0.00 0.00 0.00 87 1016.7
20260904141413 79 129 3.0 8.0 0.00 0.00 0.00 87 1016.8
20260904140419 79 128 3.0 6.0 0.00 0.00 0.00 87 1016.7
20260904135415 79 141 3.0 7.0 0.00 0.00 0.00 88 1016.6
20260904134413 79 132 3.0 12.0 0.00 0.00 0.00 88 1016.5
20260904133333 79 159 4.0 8.0 0.00 0.00 0.00 88 1016.4
20260904132338 78 144 2.0 6.0 0.00 0.00 0.00 88 1016.2
20260904131407 78 157 4.0 6.0 0.00 0.00 0.00 89 1016.3
20260904130323 78 152 4.0 8.0 0.00 0.00 0.00 89 1016.3
20260904124351 78 146 3.0 6.0 0.00 0.00 0.00 88 1015.9
20260904123420 78 146 3.0 6.0 0.00 0.00 0.00 88 1015.9
20260904122336 78 140 3.0 8.0 0.00 0.00 0.00 87 1015.8
20260904121405 79 119 2.0 5.0 0.00 0.00 0.00 87 1015.9
20260904120326 79 165 2.0 5.0 0.00 0.00 0.00 86 1015.5
20260904114328 79 190 4.0 8.0 0.00 0.00 0.00 86 1015.3
20260904112345 79 184 2.0 5.0 0.00 0.00 0.00 86 1015.0
20260904104343 78 191 1.0 6.0 0.00 0.00 0.00 86 1015.0
20260904103350 78 233 1.0 8.0 0.00 0.00 0.00 86 1014.9
20260904102419 78 175 2.0 7.0 0.00 0.00 0.00 86 1014.9
20260904101342 78 165 1.0 5.0 0.00 0.00 0.00 87 1014.9
20260904095324 78 197 1.0 6.0 0.00 0.00 0.00 87 1014.7
20260904092352 77 178 0.0 3.0 0.00 0.00 0.00 87 1014.8
20260904091323 78 178 0.0 1.0 0.00 0.00 0.00 87 1014.7
20260904085354 78 178 0.0 1.0 0.00 0.00 0.00 86 1014.7
20260904084419 78 178 0.0 1.0 0.00 0.00 0.00 86 1014.7
20260904082341 79 178 0.0 4.0 0.00 0.00 0.00 85 1014.8
20260904081416 79 178 1.0 3.0 0.00 0.00 0.00 84 1014.9
20260904080326 79 178 1.0 6.0 0.00 0.00 0.00 84 1014.9
20260904075344 79 156 1.0 6.0 0.00 0.00 0.00 83 1014.9
20260904074410 79 199 1.0 7.0 0.00 0.00 0.00 83 1015.0
20260904073334 80 157 3.0 9.0 0.00 0.00 0.00 83 1015.0
20260904072349 79 176 2.0 7.0 0.00 0.00 0.00 83 1015.1
20260904071418 79 161 2.0 6.0 0.00 0.00 0.00 83 1015.3
20260904070344 80 191 3.0 7.0 0.00 0.00 0.00 83 1015.3
20260904065335 80 188 2.0 6.0 0.00 0.00 0.00 83 1015.4
20260904064349 80 174 2.0 7.0 0.00 0.00 0.00 83 1015.6
20260904063334 80 167 2.0 6.0 0.00 0.00 0.00 83 1015.6
20260904062339 80 188 4.0 8.0 0.00 0.00 0.00 83 1015.5
20260904061324 80 171 3.0 9.0 0.00 0.00 0.00 82 1015.5
20260904060337 80 164 3.0 8.0 0.00 0.00 0.00 82 1015.6
20260904055342 80 67 3.0 9.0 0.00 0.00 0.00 81 1015.5
20260904054327 81 128 4.0 11.0 0.00 0.00 0.00 80 1015.4
20260904053341 81 141 4.0 11.0 0.00 0.00 0.00 79 1015.4
20260904052327 81 199 5.0 10.0 0.00 0.00 0.00 79 1015.4
20260904051332 81 185 5.0 11.0 0.00 0.00 0.00 78 1015.1
20260904050328 82 162 6.0 14.0 0.00 0.00 0.00 77 1015.1
20260904045404 82 155 4.0 15.0 0.00 0.00 0.00 77 1015.1